Year,Month,Day,Hour,Minute,Value (Times are PST for temperature in C)
2017,10,05,00,00,8.60
2017,10,05,00,01,8.60
2017,10,05,00,02,8.60
2017,10,05,00,03,8.60
2017,10,05,00,04,8.60
2017,10,05,00,05,8.60
2017,10,05,00,06,8.60
2017,10,05,00,07,8.60
2017,10,05,00,08,8.50
2017,10,05,00,09,8.50
2017,10,05,00,10,8.50
2017,10,05,00,11,8.40
2017,10,05,00,12,8.40
2017,10,05,00,13,8.40
2017,10,05,00,14,8.40
2017,10,05,00,15,8.40
2017,10,05,00,16,8.40
2017,10,05,00,17,8.30
2017,10,05,00,18,8.30
2017,10,05,00,19,8.30
2017,10,05,00,20,8.30
2017,10,05,00,21,8.30
2017,10,05,00,22,8.30
2017,10,05,00,23,8.30
2017,10,05,00,24,8.30
2017,10,05,00,25,8.30
2017,10,05,00,26,8.30
2017,10,05,00,27,8.20
2017,10,05,00,28,8.30
2017,10,05,00,29,8.20
2017,10,05,00,30,8.20
2017,10,05,00,31,8.20
2017,10,05,00,32,8.20
2017,10,05,00,33,8.20
2017,10,05,00,34,8.20
2017,10,05,00,35,8.20
2017,10,05,00,36,8.10
2017,10,05,00,37,8.10
2017,10,05,00,38,8.10
2017,10,05,00,39,8.10
2017,10,05,00,40,8.10
2017,10,05,00,41,8.00
2017,10,05,00,42,8.00
2017,10,05,00,43,8.00
2017,10,05,00,44,8.00
2017,10,05,00,45,8.00
2017,10,05,00,46,7.90
2017,10,05,00,47,7.90
2017,10,05,00,48,7.90
2017,10,05,00,49,7.90
2017,10,05,00,50,7.90
2017,10,05,00,51,7.90
2017,10,05,00,52,7.90
2017,10,05,00,53,7.90
2017,10,05,00,54,7.90
2017,10,05,00,55,7.80
2017,10,05,00,56,7.80
2017,10,05,00,57,7.90
2017,10,05,00,58,7.90
2017,10,05,00,59,7.90
2017,10,05,01,00,8.00
2017,10,05,01,01,8.10
2017,10,05,01,02,8.30
2017,10,05,01,03,8.40
2017,10,05,01,04,8.60
2017,10,05,01,05,8.70
2017,10,05,01,06,8.80
2017,10,05,01,07,8.80
2017,10,05,01,08,8.90
2017,10,05,01,09,9.00
2017,10,05,01,10,9.00
2017,10,05,01,11,9.10
2017,10,05,01,12,9.10
2017,10,05,01,13,9.20
2017,10,05,01,14,9.20
2017,10,05,01,15,9.20
2017,10,05,01,16,9.20
2017,10,05,01,17,9.20
2017,10,05,01,18,9.10
2017,10,05,01,19,9.10
2017,10,05,01,20,9.10
2017,10,05,01,21,9.00
2017,10,05,01,22,9.00
2017,10,05,01,23,8.90
2017,10,05,01,24,8.90
2017,10,05,01,25,8.90
2017,10,05,01,26,8.80
2017,10,05,01,27,8.80
2017,10,05,01,28,8.80
2017,10,05,01,29,8.80
2017,10,05,01,30,8.70
2017,10,05,01,31,8.70
2017,10,05,01,32,8.70
2017,10,05,01,33,8.70
2017,10,05,01,34,8.60
2017,10,05,01,35,8.60
2017,10,05,01,36,8.60
2017,10,05,01,37,8.60
2017,10,05,01,38,8.50
2017,10,05,01,39,8.50
2017,10,05,01,40,8.50
2017,10,05,01,41,8.40
2017,10,05,01,42,8.40
2017,10,05,01,43,8.40
2017,10,05,01,44,8.40
2017,10,05,01,45,8.40
2017,10,05,01,46,8.40
2017,10,05,01,47,8.40
2017,10,05,01,48,8.40
2017,10,05,01,49,8.40
2017,10,05,01,50,8.40
2017,10,05,01,51,8.40
2017,10,05,01,52,8.40
2017,10,05,01,53,8.30
2017,10,05,01,54,8.30
2017,10,05,01,55,8.30
2017,10,05,01,56,8.20
2017,10,05,01,57,8.20
2017,10,05,01,58,8.20
2017,10,05,01,59,8.10
2017,10,05,02,00,8.10
2017,10,05,02,01,8.10
2017,10,05,02,02,8.10
2017,10,05,02,03,8.00
2017,10,05,02,04,8.00
2017,10,05,02,05,7.90
2017,10,05,02,06,7.90
2017,10,05,02,07,7.90
2017,10,05,02,08,7.80
2017,10,05,02,09,7.80
2017,10,05,02,10,7.80
2017,10,05,02,11,7.80
2017,10,05,02,12,7.80
2017,10,05,02,13,7.70
2017,10,05,02,14,7.70
2017,10,05,02,15,7.70
2017,10,05,02,16,7.70
2017,10,05,02,17,7.70
2017,10,05,02,18,7.70
2017,10,05,02,19,7.60
2017,10,05,02,20,7.60
2017,10,05,02,21,7.70
2017,10,05,02,22,7.70
2017,10,05,02,23,7.70
2017,10,05,02,24,7.70
2017,10,05,02,25,7.70
2017,10,05,02,26,7.70
2017,10,05,02,27,7.70
2017,10,05,02,28,7.70
2017,10,05,02,29,7.70
2017,10,05,02,30,7.80
2017,10,05,02,31,7.80
2017,10,05,02,32,7.90
2017,10,05,02,33,7.90
2017,10,05,02,34,7.90
2017,10,05,02,35,8.00
2017,10,05,02,36,8.00
2017,10,05,02,37,8.00
2017,10,05,02,38,8.00
2017,10,05,02,39,8.10
2017,10,05,02,40,8.10
2017,10,05,02,41,8.10
2017,10,05,02,42,8.10
2017,10,05,02,43,8.10
2017,10,05,02,44,8.10
2017,10,05,02,45,8.10
2017,10,05,02,46,8.10
2017,10,05,02,47,8.10
2017,10,05,02,48,8.10
2017,10,05,02,49,8.10
2017,10,05,02,50,8.10
2017,10,05,02,51,8.10
2017,10,05,02,52,8.00
2017,10,05,02,53,8.00
2017,10,05,02,54,8.00
2017,10,05,02,55,8.00
2017,10,05,02,56,7.90
2017,10,05,02,57,7.90
2017,10,05,02,58,7.90
2017,10,05,02,59,7.90
2017,10,05,03,00,7.90
2017,10,05,03,01,7.90
2017,10,05,03,02,7.90
2017,10,05,03,03,7.90
2017,10,05,03,04,7.90
2017,10,05,03,05,7.80
2017,10,05,03,06,7.80
2017,10,05,03,07,7.80
2017,10,05,03,08,7.80
2017,10,05,03,09,7.80
2017,10,05,03,10,7.70
2017,10,05,03,11,7.70
2017,10,05,03,12,7.70
2017,10,05,03,13,7.70
2017,10,05,03,14,7.70
2017,10,05,03,15,7.70
2017,10,05,03,16,7.70
2017,10,05,03,17,7.70
2017,10,05,03,18,7.60
2017,10,05,03,19,7.60
2017,10,05,03,20,7.60
2017,10,05,03,21,7.60
2017,10,05,03,22,7.60
2017,10,05,03,23,7.60
2017,10,05,03,24,7.60
2017,10,05,03,25,7.60
2017,10,05,03,26,7.60
2017,10,05,03,27,7.60
2017,10,05,03,28,7.60
2017,10,05,03,29,7.50
2017,10,05,03,30,7.60
2017,10,05,03,31,7.60
2017,10,05,03,32,7.60
2017,10,05,03,33,7.60
2017,10,05,03,34,7.50
2017,10,05,03,35,7.50
2017,10,05,03,36,7.50
2017,10,05,03,37,7.50
2017,10,05,03,38,7.40
2017,10,05,03,39,7.40
2017,10,05,03,40,7.40
2017,10,05,03,41,7.40
2017,10,05,03,42,7.40
2017,10,05,03,43,7.40
2017,10,05,03,44,7.40
2017,10,05,03,45,7.40
2017,10,05,03,46,7.40
2017,10,05,03,47,7.40
2017,10,05,03,48,7.30
2017,10,05,03,49,7.30
2017,10,05,03,50,7.30
2017,10,05,03,51,7.30
2017,10,05,03,52,7.30
2017,10,05,03,53,7.30
2017,10,05,03,54,7.30
2017,10,05,03,55,7.30
2017,10,05,03,56,7.30
2017,10,05,03,57,7.30
2017,10,05,03,58,7.30
2017,10,05,03,59,7.30
2017,10,05,04,00,7.20
2017,10,05,04,01,7.20
2017,10,05,04,02,7.20
2017,10,05,04,03,7.20
2017,10,05,04,04,7.20
2017,10,05,04,05,7.20
2017,10,05,04,06,7.20
2017,10,05,04,07,7.10
2017,10,05,04,08,7.10
2017,10,05,04,09,7.10
2017,10,05,04,10,7.10
2017,10,05,04,11,7.10
2017,10,05,04,12,7.10
2017,10,05,04,13,7.00
2017,10,05,04,14,7.00
2017,10,05,04,15,7.00
2017,10,05,04,16,7.00
2017,10,05,04,17,6.90
2017,10,05,04,18,6.90
2017,10,05,04,19,6.90
2017,10,05,04,20,6.90
2017,10,05,04,21,6.90
2017,10,05,04,22,6.90
2017,10,05,04,23,6.90
2017,10,05,04,24,6.90
2017,10,05,04,25,6.90
2017,10,05,04,26,6.90
2017,10,05,04,27,6.90
2017,10,05,04,28,6.80
2017,10,05,04,29,6.80
2017,10,05,04,30,6.80
2017,10,05,04,31,6.80
2017,10,05,04,32,6.80
2017,10,05,04,33,6.80
2017,10,05,04,34,6.80
2017,10,05,04,35,6.80
2017,10,05,04,36,6.80
2017,10,05,04,37,6.80
2017,10,05,04,38,6.80
2017,10,05,04,39,6.90
2017,10,05,04,40,6.90
2017,10,05,04,41,6.90
2017,10,05,04,42,6.90
2017,10,05,04,43,6.90
2017,10,05,04,44,7.00
2017,10,05,04,45,7.00
2017,10,05,04,46,7.00
2017,10,05,04,47,7.10
2017,10,05,04,48,7.10
2017,10,05,04,49,7.10
2017,10,05,04,50,7.10
2017,10,05,04,51,7.10
2017,10,05,04,52,7.10
2017,10,05,04,53,7.10
2017,10,05,04,54,7.10
2017,10,05,04,55,7.10
2017,10,05,04,56,7.10
2017,10,05,04,57,7.00
2017,10,05,04,58,7.00
2017,10,05,04,59,7.00
2017,10,05,05,00,7.00
2017,10,05,05,01,7.00
2017,10,05,05,02,6.90
2017,10,05,05,03,6.90
2017,10,05,05,04,6.90
2017,10,05,05,05,6.90
2017,10,05,05,06,6.90
2017,10,05,05,07,6.90
2017,10,05,05,08,6.80
2017,10,05,05,09,6.80
2017,10,05,05,10,6.80
2017,10,05,05,11,6.80
2017,10,05,05,12,6.80
2017,10,05,05,13,6.70
2017,10,05,05,14,6.70
2017,10,05,05,15,6.70
2017,10,05,05,16,6.70
2017,10,05,05,17,6.60
2017,10,05,05,18,6.60
2017,10,05,05,19,6.60
2017,10,05,05,20,6.60
2017,10,05,05,21,6.60
2017,10,05,05,22,6.60
2017,10,05,05,23,6.60
2017,10,05,05,24,6.50
2017,10,05,05,25,6.50
2017,10,05,05,26,6.50
2017,10,05,05,27,6.50
2017,10,05,05,28,6.40
2017,10,05,05,29,6.40
2017,10,05,05,30,6.40
2017,10,05,05,31,6.40
2017,10,05,05,32,6.40
2017,10,05,05,33,6.40
2017,10,05,05,34,6.40
2017,10,05,05,35,6.30
2017,10,05,05,36,6.30
2017,10,05,05,37,6.30
2017,10,05,05,38,6.30
2017,10,05,05,39,6.30
2017,10,05,05,40,6.30
2017,10,05,05,41,6.30
2017,10,05,05,42,6.40
2017,10,05,05,43,6.40
2017,10,05,05,44,6.40
2017,10,05,05,45,6.40
2017,10,05,05,46,6.40
2017,10,05,05,47,6.40
2017,10,05,05,48,6.40
2017,10,05,05,49,6.40
2017,10,05,05,50,6.40
2017,10,05,05,51,6.40
2017,10,05,05,52,6.40
2017,10,05,05,53,6.40
2017,10,05,05,54,6.40
2017,10,05,05,55,6.40
2017,10,05,05,56,6.40
2017,10,05,05,57,6.40
2017,10,05,05,58,6.40
2017,10,05,05,59,6.40
2017,10,05,06,00,6.40
2017,10,05,06,01,6.40
2017,10,05,06,02,6.40
2017,10,05,06,03,6.40
2017,10,05,06,04,6.40
2017,10,05,06,05,6.40
2017,10,05,06,06,6.40
2017,10,05,06,07,6.40
2017,10,05,06,08,6.50
2017,10,05,06,09,6.50
2017,10,05,06,10,6.50
2017,10,05,06,11,6.60
2017,10,05,06,12,6.50
2017,10,05,06,13,6.50
2017,10,05,06,14,6.50
2017,10,05,06,15,6.50
2017,10,05,06,16,6.50
2017,10,05,06,17,6.60
2017,10,05,06,18,6.60
2017,10,05,06,19,6.60
2017,10,05,06,20,6.60
2017,10,05,06,21,6.60
2017,10,05,06,22,6.60
2017,10,05,06,23,6.50
2017,10,05,06,24,6.50
2017,10,05,06,25,6.50
2017,10,05,06,26,6.50
2017,10,05,06,27,6.40
2017,10,05,06,28,6.40
2017,10,05,06,29,6.40
2017,10,05,06,30,6.40
2017,10,05,06,31,6.40
2017,10,05,06,32,6.40
2017,10,05,06,33,6.30
2017,10,05,06,34,6.30
2017,10,05,06,35,6.30
2017,10,05,06,36,6.30
2017,10,05,06,37,6.30
2017,10,05,06,38,6.30
2017,10,05,06,39,6.30
2017,10,05,06,40,6.20
2017,10,05,06,41,6.20
2017,10,05,06,42,6.20
2017,10,05,06,43,6.20
2017,10,05,06,44,6.20
2017,10,05,06,45,6.20
2017,10,05,06,46,6.20
2017,10,05,06,47,6.20
2017,10,05,06,48,6.10
2017,10,05,06,49,6.10
2017,10,05,06,50,6.10
2017,10,05,06,51,6.10
2017,10,05,06,52,6.10
2017,10,05,06,53,6.10
2017,10,05,06,54,6.10
2017,10,05,06,55,6.10
2017,10,05,06,56,6.00
2017,10,05,06,57,6.00
2017,10,05,06,58,6.00
2017,10,05,06,59,6.00
2017,10,05,07,00,6.00
2017,10,05,07,01,6.00
2017,10,05,07,02,6.00
2017,10,05,07,03,6.00
2017,10,05,07,04,6.00
2017,10,05,07,05,6.00
2017,10,05,07,06,6.00
2017,10,05,07,07,6.00
2017,10,05,07,08,6.00
2017,10,05,07,09,6.00
2017,10,05,07,10,6.00
2017,10,05,07,11,6.00
2017,10,05,07,12,6.00
2017,10,05,07,13,6.00
2017,10,05,07,14,6.00
2017,10,05,07,15,6.00
2017,10,05,07,16,6.00
2017,10,05,07,17,6.00
2017,10,05,07,18,6.00
2017,10,05,07,19,6.00
2017,10,05,07,20,6.00
2017,10,05,07,21,6.00
2017,10,05,07,22,6.00
2017,10,05,07,23,6.00
2017,10,05,07,24,6.00
2017,10,05,07,25,6.00
2017,10,05,07,26,5.90
2017,10,05,07,27,5.90
2017,10,05,07,28,5.90
2017,10,05,07,29,5.90
2017,10,05,07,30,5.90
2017,10,05,07,31,5.90
2017,10,05,07,32,5.90
2017,10,05,07,33,5.90
2017,10,05,07,34,5.80
2017,10,05,07,35,5.80
2017,10,05,07,36,5.80
2017,10,05,07,37,5.80
2017,10,05,07,38,5.80
2017,10,05,07,39,5.80
2017,10,05,07,40,5.80
2017,10,05,07,41,5.90
2017,10,05,07,42,5.90
2017,10,05,07,43,5.90
2017,10,05,07,44,5.90
2017,10,05,07,45,5.90
2017,10,05,07,46,5.90
2017,10,05,07,47,5.90
2017,10,05,07,48,5.90
2017,10,05,07,49,5.90
2017,10,05,07,50,5.90
2017,10,05,07,51,5.90
2017,10,05,07,52,5.90
2017,10,05,07,53,5.90
2017,10,05,07,54,5.90
2017,10,05,07,55,5.90
2017,10,05,07,56,5.80
2017,10,05,07,57,5.80
2017,10,05,07,58,5.80
2017,10,05,07,59,5.80
2017,10,05,08,00,5.90
2017,10,05,08,01,5.90
2017,10,05,08,02,5.90
2017,10,05,08,03,5.90
2017,10,05,08,04,5.90
2017,10,05,08,05,5.90
2017,10,05,08,06,5.90
2017,10,05,08,07,5.90
2017,10,05,08,08,5.90
2017,10,05,08,09,5.90
2017,10,05,08,10,5.90
2017,10,05,08,11,5.90
2017,10,05,08,12,5.90
2017,10,05,08,13,6.00
2017,10,05,08,14,6.00
2017,10,05,08,15,6.10
2017,10,05,08,16,6.20
2017,10,05,08,17,6.20
2017,10,05,08,18,6.20
2017,10,05,08,19,6.20
2017,10,05,08,20,6.30
2017,10,05,08,21,6.30
2017,10,05,08,22,6.30
2017,10,05,08,23,6.30
2017,10,05,08,24,6.30
2017,10,05,08,25,6.30
2017,10,05,08,26,6.30
2017,10,05,08,27,6.30
2017,10,05,08,28,6.30
2017,10,05,08,29,6.30
2017,10,05,08,30,6.30
2017,10,05,08,31,6.30
2017,10,05,08,32,6.30
2017,10,05,08,33,6.30
2017,10,05,08,34,6.40
2017,10,05,08,35,6.40
2017,10,05,08,36,6.40
2017,10,05,08,37,6.40
2017,10,05,08,38,6.40
2017,10,05,08,39,6.50
2017,10,05,08,40,6.50
2017,10,05,08,41,6.50
2017,10,05,08,42,6.60
2017,10,05,08,43,6.60
2017,10,05,08,44,6.60
2017,10,05,08,45,6.70
2017,10,05,08,46,6.80
2017,10,05,08,47,6.80
2017,10,05,08,48,6.80
2017,10,05,08,49,6.80
2017,10,05,08,50,6.90
2017,10,05,08,51,6.90
2017,10,05,08,52,6.90
2017,10,05,08,53,7.00
2017,10,05,08,54,7.10
2017,10,05,08,55,7.10
2017,10,05,08,56,7.10
2017,10,05,08,57,7.20
2017,10,05,08,58,7.20
2017,10,05,08,59,7.20
2017,10,05,09,00,7.30
2017,10,05,09,01,7.30
2017,10,05,09,02,7.30
2017,10,05,09,03,7.40
2017,10,05,09,04,7.40
2017,10,05,09,05,7.40
2017,10,05,09,06,7.50
2017,10,05,09,07,7.60
2017,10,05,09,08,7.60
2017,10,05,09,09,7.70
2017,10,05,09,10,7.70
2017,10,05,09,11,7.70
2017,10,05,09,12,7.80
2017,10,05,09,13,7.80
2017,10,05,09,14,7.90
2017,10,05,09,15,7.90
2017,10,05,09,16,7.90
2017,10,05,09,17,8.00
2017,10,05,09,18,8.00
2017,10,05,09,19,8.10
2017,10,05,09,20,8.10
2017,10,05,09,21,8.10
2017,10,05,09,22,8.20
2017,10,05,09,23,8.20
2017,10,05,09,24,8.30
2017,10,05,09,25,8.30
2017,10,05,09,26,8.30
2017,10,05,09,27,8.40
2017,10,05,09,28,8.40
2017,10,05,09,29,8.50
2017,10,05,09,30,8.60
2017,10,05,09,31,8.60
2017,10,05,09,32,8.70
2017,10,05,09,33,8.70
2017,10,05,09,34,8.80
2017,10,05,09,35,8.80
2017,10,05,09,36,8.90
2017,10,05,09,37,8.90
2017,10,05,09,38,8.90
2017,10,05,09,39,9.00
2017,10,05,09,40,9.00
2017,10,05,09,41,9.10
2017,10,05,09,42,9.10
2017,10,05,09,43,9.20
2017,10,05,09,44,9.20
2017,10,05,09,45,9.30
2017,10,05,09,46,9.30
2017,10,05,09,47,9.40
2017,10,05,09,48,9.40
2017,10,05,09,49,9.50
2017,10,05,09,50,9.60
2017,10,05,09,51,9.60
2017,10,05,09,52,9.70
2017,10,05,09,53,9.80
2017,10,05,09,54,9.80
2017,10,05,09,55,9.90
2017,10,05,09,56,9.90
2017,10,05,09,57,10.00
2017,10,05,09,58,10.10
2017,10,05,09,59,10.10
2017,10,05,10,00,10.20
2017,10,05,10,01,10.20
2017,10,05,10,02,10.30
2017,10,05,10,03,10.30
2017,10,05,10,04,10.40
2017,10,05,10,05,10.40
2017,10,05,10,06,10.50
2017,10,05,10,07,10.50
2017,10,05,10,08,10.60
2017,10,05,10,09,10.60
2017,10,05,10,10,10.70
2017,10,05,10,11,10.70
2017,10,05,10,12,10.80
2017,10,05,10,13,10.80
2017,10,05,10,14,10.90
2017,10,05,10,15,10.90
2017,10,05,10,16,11.00
2017,10,05,10,17,11.10
2017,10,05,10,18,11.20
2017,10,05,10,19,11.20
2017,10,05,10,20,11.30
2017,10,05,10,21,11.30
2017,10,05,10,22,11.40
2017,10,05,10,23,11.40
2017,10,05,10,24,11.50
2017,10,05,10,25,11.60
2017,10,05,10,26,11.70
2017,10,05,10,27,11.80
2017,10,05,10,28,11.90
2017,10,05,10,29,11.90
2017,10,05,10,30,12.00
2017,10,05,10,31,12.10
2017,10,05,10,32,12.20
2017,10,05,10,33,12.30
2017,10,05,10,34,12.30
2017,10,05,10,35,12.40
2017,10,05,10,36,12.40
2017,10,05,10,37,12.50
2017,10,05,10,38,12.60
2017,10,05,10,39,12.60
2017,10,05,10,40,12.70
2017,10,05,10,41,12.70
2017,10,05,10,42,12.80
2017,10,05,10,43,12.80
2017,10,05,10,44,12.80
2017,10,05,10,45,12.80
2017,10,05,10,46,12.70
2017,10,05,10,47,12.60
2017,10,05,10,48,12.50
2017,10,05,10,49,12.40
2017,10,05,10,50,12.30
2017,10,05,10,51,12.30
2017,10,05,10,52,12.30
2017,10,05,10,53,12.30
2017,10,05,10,54,12.30
2017,10,05,10,55,12.30
2017,10,05,10,56,12.30
2017,10,05,10,57,12.20
2017,10,05,10,58,12.20
2017,10,05,10,59,12.20
2017,10,05,11,00,12.20
2017,10,05,11,01,12.20
2017,10,05,11,02,12.20
2017,10,05,11,03,12.20
2017,10,05,11,04,12.20
2017,10,05,11,05,12.20
2017,10,05,11,06,12.20
2017,10,05,11,07,12.20
2017,10,05,11,08,12.20
2017,10,05,11,09,12.20
2017,10,05,11,10,12.20
2017,10,05,11,11,12.20
2017,10,05,11,12,12.20
2017,10,05,11,13,12.30
2017,10,05,11,14,12.30
2017,10,05,11,15,12.30
2017,10,05,11,16,12.40
2017,10,05,11,17,12.40
2017,10,05,11,18,12.50
2017,10,05,11,19,12.60
2017,10,05,11,20,12.60
2017,10,05,11,21,12.70
2017,10,05,11,22,12.70
2017,10,05,11,23,12.70
2017,10,05,11,24,12.70
2017,10,05,11,25,12.80
2017,10,05,11,26,12.80
2017,10,05,11,27,12.80
2017,10,05,11,28,12.80
2017,10,05,11,29,12.80
2017,10,05,11,30,12.90
2017,10,05,11,31,12.90
2017,10,05,11,32,12.90
2017,10,05,11,33,12.90
2017,10,05,11,34,12.90
2017,10,05,11,35,12.90
2017,10,05,11,36,12.90
2017,10,05,11,37,12.90
2017,10,05,11,38,12.90
2017,10,05,11,39,13.00
2017,10,05,11,40,13.00
2017,10,05,11,41,13.10
2017,10,05,11,42,13.20
2017,10,05,11,43,13.20
2017,10,05,11,44,13.30
2017,10,05,11,45,13.40
2017,10,05,11,46,13.40
2017,10,05,11,47,13.50
2017,10,05,11,48,13.50
2017,10,05,11,49,13.60
2017,10,05,11,50,13.60
2017,10,05,11,51,13.70
2017,10,05,11,52,13.70
2017,10,05,11,53,13.80
2017,10,05,11,54,13.80
2017,10,05,11,55,13.80
2017,10,05,11,56,13.70
2017,10,05,11,57,13.70
2017,10,05,11,58,13.60
2017,10,05,11,59,13.60
2017,10,05,12,00,13.60
2017,10,05,12,01,13.60
2017,10,05,12,02,13.70
2017,10,05,12,03,13.70
2017,10,05,12,04,13.70
2017,10,05,12,05,13.70
2017,10,05,12,06,13.60
2017,10,05,12,07,13.60
2017,10,05,12,08,13.60
2017,10,05,12,09,13.60
2017,10,05,12,10,13.50
2017,10,05,12,11,13.50
2017,10,05,12,12,13.50
2017,10,05,12,13,13.50
2017,10,05,12,14,13.40
2017,10,05,12,15,13.40
2017,10,05,12,16,13.40
2017,10,05,12,17,13.50
2017,10,05,12,18,13.50
2017,10,05,12,19,13.50
2017,10,05,12,20,13.60
2017,10,05,12,21,13.60
2017,10,05,12,22,13.60
2017,10,05,12,23,13.60
2017,10,05,12,24,13.60
2017,10,05,12,25,13.70
2017,10,05,12,26,13.70
2017,10,05,12,27,13.70
2017,10,05,12,28,13.80
2017,10,05,12,29,13.80
2017,10,05,12,30,13.80
2017,10,05,12,31,13.80
2017,10,05,12,32,13.90
2017,10,05,12,33,13.90
2017,10,05,12,34,13.90
2017,10,05,12,35,14.00
2017,10,05,12,36,14.00
2017,10,05,12,37,14.00
2017,10,05,12,38,14.10
2017,10,05,12,39,14.10
2017,10,05,12,40,14.10
2017,10,05,12,41,14.10
2017,10,05,12,42,14.10
2017,10,05,12,43,14.10
2017,10,05,12,44,14.10
2017,10,05,12,45,14.10
2017,10,05,12,46,14.10
2017,10,05,12,47,14.10
2017,10,05,12,48,14.20
2017,10,05,12,49,14.20
2017,10,05,12,50,14.20
2017,10,05,12,51,14.20
2017,10,05,12,52,14.20
2017,10,05,12,53,14.20
2017,10,05,12,54,14.20
2017,10,05,12,55,14.20
2017,10,05,12,56,14.20
2017,10,05,12,57,14.20
2017,10,05,12,58,14.20
2017,10,05,12,59,14.20
2017,10,05,13,00,14.20
2017,10,05,13,01,14.20
2017,10,05,13,02,14.20
2017,10,05,13,03,14.20
2017,10,05,13,04,14.20
2017,10,05,13,05,14.30
2017,10,05,13,06,14.30
2017,10,05,13,07,14.30
2017,10,05,13,08,14.30
2017,10,05,13,09,14.30
2017,10,05,13,10,14.30
2017,10,05,13,11,14.40
2017,10,05,13,12,14.40
2017,10,05,13,13,14.40
2017,10,05,13,14,14.50
2017,10,05,13,15,14.50
2017,10,05,13,16,14.60
2017,10,05,13,17,14.60
2017,10,05,13,18,14.60
2017,10,05,13,19,14.70
2017,10,05,13,20,14.70
2017,10,05,13,21,14.70
2017,10,05,13,22,14.80
2017,10,05,13,23,14.80
2017,10,05,13,24,14.80
2017,10,05,13,25,14.80
2017,10,05,13,26,14.80
2017,10,05,13,27,14.90
2017,10,05,13,28,14.90
2017,10,05,13,29,14.90
2017,10,05,13,30,15.00
2017,10,05,13,31,15.10
2017,10,05,13,32,15.10
2017,10,05,13,33,15.20
2017,10,05,13,34,15.30
2017,10,05,13,35,15.40
2017,10,05,13,36,15.40
2017,10,05,13,37,15.50
2017,10,05,13,38,15.50
2017,10,05,13,39,15.60
2017,10,05,13,40,15.60
2017,10,05,13,41,15.60
2017,10,05,13,42,15.60
2017,10,05,13,43,15.50
2017,10,05,13,44,15.50
2017,10,05,13,45,15.50
2017,10,05,13,46,15.50
2017,10,05,13,47,15.40
2017,10,05,13,48,15.40
2017,10,05,13,49,15.40
2017,10,05,13,50,15.30
2017,10,05,13,51,15.30
2017,10,05,13,52,15.30
2017,10,05,13,53,15.40
2017,10,05,13,54,15.40
2017,10,05,13,55,15.50
2017,10,05,13,56,15.60
2017,10,05,13,57,15.60
2017,10,05,13,58,15.60
2017,10,05,13,59,15.60
2017,10,05,14,00,15.50
2017,10,05,14,01,15.50
2017,10,05,14,02,15.40
2017,10,05,14,03,15.40
2017,10,05,14,04,15.40
2017,10,05,14,05,15.40
2017,10,05,14,06,15.40
2017,10,05,14,07,15.40
2017,10,05,14,08,15.50
2017,10,05,14,09,15.50
2017,10,05,14,10,15.60
2017,10,05,14,11,15.70
2017,10,05,14,12,15.80
2017,10,05,14,13,15.80
2017,10,05,14,14,15.80
2017,10,05,14,15,15.80
2017,10,05,14,16,15.80
2017,10,05,14,17,15.80
2017,10,05,14,18,15.80
2017,10,05,14,19,15.70
2017,10,05,14,20,15.70
2017,10,05,14,21,15.70
2017,10,05,14,22,15.60
2017,10,05,14,23,15.60
2017,10,05,14,24,15.60
2017,10,05,14,25,15.50
2017,10,05,14,26,15.50
2017,10,05,14,27,15.60
2017,10,05,14,28,15.60
2017,10,05,14,29,15.60
2017,10,05,14,30,15.60
2017,10,05,14,31,15.60
2017,10,05,14,32,15.50
2017,10,05,14,33,15.50
2017,10,05,14,34,15.60
2017,10,05,14,35,15.60
2017,10,05,14,36,15.60
2017,10,05,14,37,15.60
2017,10,05,14,38,15.60
2017,10,05,14,39,15.60
2017,10,05,14,40,15.60
2017,10,05,14,41,15.70
2017,10,05,14,42,15.70
2017,10,05,14,43,15.70
2017,10,05,14,44,15.70
2017,10,05,14,45,15.60
2017,10,05,14,46,15.60
2017,10,05,14,47,15.60
2017,10,05,14,48,15.60
2017,10,05,14,49,15.60
2017,10,05,14,50,15.60
2017,10,05,14,51,15.50
2017,10,05,14,52,15.50
2017,10,05,14,53,15.60
2017,10,05,14,54,15.60
2017,10,05,14,55,15.60
2017,10,05,14,56,15.60
2017,10,05,14,57,15.60
2017,10,05,14,58,15.60
2017,10,05,14,59,15.60
2017,10,05,15,00,15.60
2017,10,05,15,01,15.60
2017,10,05,15,02,15.60
2017,10,05,15,03,15.50
2017,10,05,15,04,15.50
2017,10,05,15,05,15.50
2017,10,05,15,06,15.50
2017,10,05,15,07,15.50
2017,10,05,15,08,15.50
2017,10,05,15,09,15.50
2017,10,05,15,10,15.50
2017,10,05,15,11,15.40
2017,10,05,15,12,15.40
2017,10,05,15,13,15.40
2017,10,05,15,14,15.40
2017,10,05,15,15,15.50
2017,10,05,15,16,15.50
2017,10,05,15,17,15.50
2017,10,05,15,18,15.50
2017,10,05,15,19,15.50
2017,10,05,15,20,15.50
2017,10,05,15,21,15.50
2017,10,05,15,22,15.50
2017,10,05,15,23,15.60
2017,10,05,15,24,15.50
2017,10,05,15,25,15.60
2017,10,05,15,26,15.60
2017,10,05,15,27,15.60
2017,10,05,15,28,15.60
2017,10,05,15,29,15.60
2017,10,05,15,30,15.70
2017,10,05,15,31,15.70
2017,10,05,15,32,15.70
2017,10,05,15,33,15.70
2017,10,05,15,34,15.80
2017,10,05,15,35,15.80
2017,10,05,15,36,15.80
2017,10,05,15,37,15.80
2017,10,05,15,38,15.80
2017,10,05,15,39,15.80
2017,10,05,15,40,15.80
2017,10,05,15,41,15.80
2017,10,05,15,42,15.70
2017,10,05,15,43,15.70
2017,10,05,15,44,15.70
2017,10,05,15,45,15.70
2017,10,05,15,46,15.70
2017,10,05,15,47,15.70
2017,10,05,15,48,15.70
2017,10,05,15,49,15.70
2017,10,05,15,50,15.70
2017,10,05,15,51,15.70
2017,10,05,15,52,15.70
2017,10,05,15,53,15.70
2017,10,05,15,54,15.70
2017,10,05,15,55,15.70
2017,10,05,15,56,15.70
2017,10,05,15,57,15.70
2017,10,05,15,58,15.70
2017,10,05,15,59,15.70
2017,10,05,16,00,15.80
2017,10,05,16,01,15.80
2017,10,05,16,02,15.80
2017,10,05,16,03,15.80
2017,10,05,16,04,15.80
2017,10,05,16,05,15.80
2017,10,05,16,06,15.80
2017,10,05,16,07,15.70
2017,10,05,16,08,15.70
2017,10,05,16,09,15.70
2017,10,05,16,10,15.60
2017,10,05,16,11,15.60
2017,10,05,16,12,15.50
2017,10,05,16,13,15.50
2017,10,05,16,14,15.40
2017,10,05,16,15,15.30
2017,10,05,16,16,15.30
2017,10,05,16,17,15.20
2017,10,05,16,18,15.20
2017,10,05,16,19,15.10
2017,10,05,16,20,15.10
2017,10,05,16,21,15.00
2017,10,05,16,22,15.00
2017,10,05,16,23,14.90
2017,10,05,16,24,14.90
2017,10,05,16,25,14.80
2017,10,05,16,26,14.80
2017,10,05,16,27,14.80
2017,10,05,16,28,14.80
2017,10,05,16,29,14.80
2017,10,05,16,30,14.70
2017,10,05,16,31,14.70
2017,10,05,16,32,14.70
2017,10,05,16,33,14.70
2017,10,05,16,34,14.70
2017,10,05,16,35,14.70
2017,10,05,16,36,14.70
2017,10,05,16,37,14.70
2017,10,05,16,38,14.70
2017,10,05,16,39,14.70
2017,10,05,16,40,14.70
2017,10,05,16,41,14.70
2017,10,05,16,42,14.70
2017,10,05,16,43,14.70
2017,10,05,16,44,14.70
2017,10,05,16,45,14.70
2017,10,05,16,46,14.70
2017,10,05,16,47,14.80
2017,10,05,16,48,14.80
2017,10,05,16,49,14.80
2017,10,05,16,50,14.80
2017,10,05,16,51,14.80
2017,10,05,16,52,14.80
2017,10,05,16,53,14.90
2017,10,05,16,54,14.90
2017,10,05,16,55,14.90
2017,10,05,16,56,14.90
2017,10,05,16,57,15.00
2017,10,05,16,58,15.00
2017,10,05,16,59,15.00
2017,10,05,17,00,15.00
2017,10,05,17,01,14.90
2017,10,05,17,02,14.90
2017,10,05,17,03,14.90
2017,10,05,17,04,14.90
2017,10,05,17,05,14.80
2017,10,05,17,06,14.80
2017,10,05,17,07,14.80
2017,10,05,17,08,14.80
2017,10,05,17,09,14.80
2017,10,05,17,10,14.80
2017,10,05,17,11,14.80
2017,10,05,17,12,14.80
2017,10,05,17,13,14.70
2017,10,05,17,14,14.70
2017,10,05,17,15,14.70
2017,10,05,17,16,14.70
2017,10,05,17,17,14.70
2017,10,05,17,18,14.70
2017,10,05,17,19,14.70
2017,10,05,17,20,14.70
2017,10,05,17,21,14.70
2017,10,05,17,22,14.70
2017,10,05,17,23,14.60
2017,10,05,17,24,14.60
2017,10,05,17,25,14.60
2017,10,05,17,26,14.60
2017,10,05,17,27,14.60
2017,10,05,17,28,14.50
2017,10,05,17,29,14.50
2017,10,05,17,30,14.50
2017,10,05,17,31,14.40
2017,10,05,17,32,14.40
2017,10,05,17,33,14.40
2017,10,05,17,34,14.40
2017,10,05,17,35,14.40
2017,10,05,17,36,14.30
2017,10,05,17,37,14.30
2017,10,05,17,38,14.30
2017,10,05,17,39,14.30
2017,10,05,17,40,14.30
2017,10,05,17,41,14.20
2017,10,05,17,42,14.20
2017,10,05,17,43,14.20
2017,10,05,17,44,14.20
2017,10,05,17,45,14.20